Location: Unspecified
(51.0950°N, 12.9690°E)
Time: 15:42:13
(UTC+00:00)

FALCON 9 DEB - Pass Details

Date: 28 October 2021
Orbit: 343 x 355 km, 53.0° (Epoch: 02 December)

Event Time Altitude Azimuth Distance (km) Brightness Sun altitude
Rises 17:05:20 0° 215° (SW) 2,166 7.3 -12.4°
Reaches altitude 10° 17:07:32 10° 200° (SSW) 1,332 5.9 -12.8°
Maximum altitude 17:10:00 24° 144° (SE) 803 4.2 -13.2°
Enters shadow 17:10:41 22° 122° (ESE) 857 4.2 -13.3°
